Location: Chassagnes
(44.4047°N, 4.1657°E)
Time: 11:38:11
(UTC+00:00)

Cosmos 1689 Rocket - Pass Details

Date: 27 October 2020
Orbit: 360 x 375 km, 97.5° (Epoch: 23 November)

Event Time Altitude Azimuth Distance (km) Brightness Sun altitude
Rises 17:14:28 0° 26° (NNE) 2,209 5.5 -6.9°
Reaches altitude 10° 17:16:42 10° 43° (NE) 1,354 4.3 -7.3°
Maximum altitude 17:19:00 21° 96° (E) 876 3.3 -7.7°
Drops below altitude 10° 17:21:16 10° 149° (SSE) 1,342 4.6 -8.1°
Sets 17:23:28 0° 166° (SSE) 2,182 5.8 -8.5°
